Temperature
-4 -5 -5 -6 -6 -6 -6 -6 -6 -5 -5 -5 -4 -4 -3 -3 -2 -2 -1 0 2 3 3 3 3 4 6 8 9 10 11 12 13 14 15 15 15 16 16 16 16 16 16
-6 -7 -7 -7 -7 -7 -8 -8 -7 -7 -7 -6 -6 -5 -5 -4 -3 -3 -2 -1 1 2 2 2 2 3 4 6 8 9 10 12 13 14 15 15 15 15 16 16 16 16 16
-7 -8 -8 -8 -8 -8 -8 -8 -8 -8 -8 -7 -7 -6 -6 -5 -4 -3 -3 -2 -1 -0 1 1 1 1 3 5 6 8 10 11 12 13 14 15 15 15 15 16 16 16 16
-7 -8 -8 -9 -9 -9 -9 -9 -9 -9 -9 -9 -8 -7 -7 -6 -5 -4 -4 -3 -2 -2 -1 -1 0 1 2 4 6 7 9 10 11 12 13 14 15 15 15 15 16 16 16
-8 -9 -9 -10 -10 -10 -10 -10 -10 -10 -10 -10 -9 -9 -8 -7 -6 -5 -4 -4 -3 -3 -2 -2 -1 0 1 3 5 7 8 9 10 12 13 14 15 15 15 15 15 16 16
-9 -10 -11 -11 -11 -11 -11 -11 -11 -11 -11 -10 -10 -10 -9 -8 -7 -5 -5 -4 -4 -3 -3 -3 -3 -1 -0 2 3 6 7 9 10 11 12 13 14 15 15 15 15 15 16
-9 -10 -11 -11 -12 -12 -12 -12 -12 -11 -11 -11 -11 -10 -9 -8 -6 -5 -5 -5 -4 -4 -4 -4 -4 -3 -1 0 2 4 6 8 9 10 11 13 14 14 15 15 15 15 15
-10 -11 -12 -12 -12 -12 -12 -12 -12 -12 -12 -11 -12 -11 -10 -8 -5 -6 -6 -6 -5 -5 -5 -5 -4 -3 -2 -1 1 3 5 7 8 9 11 12 13 14 14 15 15 15 15
-11 -12 -12 -12 -12 -12 -12 -12 -12 -13 -12 -12 -12 -12 -12 -10 -10 -9 -7 -6 -6 -6 -6 -5 -5 -4 -3 -2 -0 2 4 6 7 8 10 11 12 13 14 14 15 15 15
-11 -12 -12 -12 -12 -12 -12 -13 -13 -13 -13 -13 -13 -12 -12 -12 -12 -10 -8 -7 -7 -7 -6 -6 -5 -4 -4 -3 -1 1 3 4 6 7 9 10 11 12 13 14 15 15 15
-11 -12 -12 -12 -12 -12 -12 -13 -13 -13 -13 -13 -13 -13 -13 -12 -12 -12 -10 -9 -8 -7 -6 -6 -5 -5 -4 -3 -2 -0 2 3 5 6 8 9 11 12 13 13 14 14 15
-11 -11 -12 -12 -12 -12 -12 -12 -13 -13 -13 -13 -13 -13 -13 -13 -12 -11 -10 -10 -8 -7 -7 -6 -5 -5 -4 -4 -3 -1 1 3 4 6 7 8 10 11 12 13 13 14 14
-11 -11 -11 -11 -11 -12 -12 -12 -12 -12 -13 -13 -13 -13 -13 -13 -12 -12 -11 -10 -9 -8 -7 -6 -5 -5 -5 -4 -4 -3 -0 2 4 5 6 7 9 10 11 12 13 13 14
-12 -11 -11 -11 -11 -11 -11 -12 -12 -12 -12 -12 -12 -13 -13 -12 -12 -12 -11 -10 -9 -8 -6 -5 -5 -5 -5 -5 -5 -3 -1 1 3 4 5 6 8 10 11 12 13 13 13
-12 -11 -11 -11 -11 -11 -11 -11 -11 -11 -11 -11 -12 -12 -12 -11 -11 -11 -10 -10 -9 -8 -7 -6 -5 -5 -5 -5 -5 -4 -3 -1 2 3 5 6 7 8 10 11 12 12 13
-12 -12 -11 -11 -11 -11 -11 -11 -11 -11 -11 -11 -11 -11 -11 -10 -10 -10 -9 -9 -9 -8 -8 -7 -6 -6 -6 -6 -5 -4 -3 -1 1 3 4 5 6 8 9 10 12 12 12
-12 -12 -12 -11 -11 -11 -11 -11 -11 -11 -11 -11 -11 -11 -10 -10 -10 -9 -9 -9 -9 -9 -8 -8 -7 -7 -6 -6 -5 -4 -3 -1 1 2 4 5 6 7 8 10 11 11 12
-12 -12 -12 -12 -11 -11 -11 -11 -11 -11 -11 -11 -11 -11 -11 -10 -10 -10 -9 -9 -9 -9 -9 -9 -8 -7 -7 -6 -5 -4 -3 -2 0 2 3 4 5 6 7 9 10 11 11
-12 -12 -12 -12 -11 -11 -11 -11 -11 -11 -11 -11 -12 -12 -11 -11 -11 -10 -10 -10 -10 -9 -9 -9 -8 -8 -7 -6 -5 -4 -3 -2 -0 2 3 4 5 6 7 8 9 10 11
-12 -12 -12 -12 -12 -11 -11 -12 -12 -11 -11 -11 -12 -12 -12 -12 -11 -11 -10 -10 -10 -10 -10 -9 -9 -8 -8 -7 -5 -4 -2 -1 -0 1 2 4 4 5 6 7 9 10 11
-11 -12 -12 -12 -12 -11 -11 -11 -12 -12 -12 -12 -12 -12 -12 -12 -12 -11 -11 -11 -11 -11 -10 -10 -9 -9 -8 -8 -7 -5 -3 -1 -0 1 2 3 4 5 6 7 8 9 10
-11 -11 -12 -12 -12 -12 -12 -11 -11 -12 -12 -13 -13 -13 -13 -12 -12 -11 -11 -11 -11 -11 -11 -10 -10 -10 -10 -9 -8 -6 -4 -2 -0 1 2 3 4 5 6 7 8 9 10
-10 -11 -11 -12 -12 -12 -12 -11 -11 -12 -12 -12 -13 -13 -13 -12 -12 -11 -11 -12 -12 -11 -11 -11 -11 -11 -10 -10 -9 -7 -5 -3 -1 1 2 3 4 5 5 6 7 8 9
-10 -10 -11 -12 -12 -11 -11 -11 -11 -11 -12 -12 -13 -13 -13 -12 -12 -11 -12 -12 -12 -12 -11 -11 -11 -11 -11 -10 -9 -8 -6 -3 -1 0 1 3 4 4 5 6 7 8 9
-10 -10 -11 -11 -11 -11 -11 -11 -11 -11 -12 -12 -12 -13 -13 -12 -12 -12 -12 -12 -12 -12 -11 -11 -11 -11 -10 -9 -9 -7 -5 -4 -2 -0 1 2 3 4 5 6 6 7 8
-9 -10 -10 -10 -10 -10 -11 -11 -11 -11 -11 -12 -12 -13 -13 -12 -13 -12 -12 -13 -12 -12 -11 -11 -11 -11 -10 -9 -8 -7 -6 -4 -3 -1 0 2 3 4 5 6 6 7 8
Wind_Speed
15 16 16 16 17 16 17 18 18 19 19 18 18 18 18 19 20 19 17 21 24 25 25 24 23 24 24 24 25 26 26 25 25 28 32 34 34 35 35 35 34 33 31
16 16 17 17 17 17 17 18 19 19 17 17 18 19 19 20 19 19 19 20 22 23 22 22 22 22 22 24 24 24 25 26 25 27 31 33 34 35 35 36 36 35 33
16 17 16 16 17 18 20 19 19 17 16 16 17 18 18 19 19 20 20 18 18 19 19 19 18 19 21 23 24 25 24 25 26 25 29 32 34 35 35 36 36 36 35
17 18 16 17 18 19 18 17 15 15 15 15 16 15 15 17 19 20 19 18 16 15 15 15 16 19 20 22 23 25 24 24 25 24 26 31 34 34 35 37 37 37 37
18 18 17 17 19 18 17 16 14 15 16 17 16 16 16 16 16 18 17 16 15 14 13 13 16 18 19 20 22 24 25 25 24 24 24 29 34 34 35 36 37 37 38
18 18 16 18 18 16 14 15 17 17 16 16 16 17 17 17 16 15 14 12 12 13 12 12 14 14 17 18 20 22 24 26 26 23 21 25 33 34 34 35 37 37 38
18 18 16 17 17 14 15 17 17 18 16 15 16 17 17 17 15 12 9 9 11 10 10 13 13 13 13 17 19 19 22 24 26 24 21 20 27 34 34 35 36 37 37
17 16 17 16 17 15 17 17 17 15 15 14 14 16 13 13 8 7 10 11 10 8 11 14 14 14 14 13 14 19 20 22 24 25 23 19 20 30 35 35 36 37 37
17 17 18 18 18 16 15 18 17 18 16 15 13 10 9 8 13 10 12 9 9 11 12 12 13 14 15 14 14 14 18 21 23 25 22 19 18 23 34 35 36 37 37
16 17 18 19 19 17 17 17 17 16 17 15 13 12 12 13 10 9 9 11 14 13 13 12 12 13 14 13 13 16 18 20 22 23 21 17 17 18 28 36 36 37 37
15 17 18 19 19 18 18 19 19 17 14 15 14 13 14 13 14 13 15 14 12 12 12 13 12 11 13 12 12 13 16 20 21 22 20 16 14 15 19 32 37 36 37
14 17 19 19 19 18 18 18 17 17 15 15 14 13 13 12 12 12 13 15 14 14 14 12 12 10 10 11 12 14 18 20 21 22 21 17 14 14 14 20 33 36 36
12 16 19 19 19 20 20 19 16 15 15 15 14 12 12 12 12 13 13 14 15 14 15 12 9 9 9 9 10 15 19 20 20 21 21 18 15 14 14 15 23 33 36
13 18 19 19 20 20 20 18 13 13 12 13 14 14 12 12 12 12 13 13 14 14 13 12 9 9 7 9 13 18 16 18 19 20 21 19 15 14 13 11 14 22 30
15 18 19 18 19 19 19 17 12 13 13 12 12 13 11 11 11 12 12 12 12 13 13 13 11 10 10 11 14 15 15 18 19 20 20 19 15 13 13 10 9 15 20
16 16 17 17 17 18 18 15 14 14 13 12 10 11 11 9 9 9 9 9 9 11 12 12 13 14 14 12 16 16 16 19 20 19 19 18 15 12 11 10 8 13 16
15 15 15 16 16 16 15 14 15 15 15 14 13 12 12 11 10 9 8 8 8 9 12 14 13 14 16 15 14 13 13 13 12 16 17 17 14 11 9 9 8 11 17
14 15 15 15 15 15 15 14 14 14 14 14 14 14 14 13 14 11 10 10 10 10 12 15 14 13 15 15 15 14 12 10 10 13 16 16 14 12 9 9 9 10 17
13 15 15 15 15 14 14 13 12 12 12 13 13 14 14 15 15 14 13 12 11 11 11 12 13 12 12 12 14 12 12 10 10 10 13 14 13 12 9 10 10 9 14
12 14 14 15 14 13 13 11 9 10 10 12 13 13 14 14 15 17 13 13 13 13 12 11 11 11 11 12 10 8 8 6 7 7 9 9 9 10 10 10 10 10 12
12 13 14 15 15 13 13 10 6 8 9 11 12 13 14 17 19 17 13 13 13 12 12 11 10 10 10 11 9 8 9 9 7 4 5 6 6 7 7 8 9 9 11
12 13 14 15 16 13 20 18 7 8 10 11 12 13 14 15 20 21 17 17 15 13 12 11 10 10 11 11 10 10 9 6 3 2 3 4 5 6 5 5 6 7 10
12 13 14 15 16 18 23 22 15 10 12 13 13 13 13 15 20 14 12 15 15 16 14 11 11 11 12 11 12 11 10 8 7 6 4 3 4 6 5 4 5 6 8
11 12 13 15 15 17 22 23 19 11 11 13 13 14 15 16 17 16 12 12 13 11 11 10 10 10 10 11 11 11 11 10 10 8 5 2 3 4 3 3 4 6 8
12 12 13 14 15 17 21 24 21 10 10 12 12 13 15 15 20 22 15 14 14 11 11 14 13 12 13 13 11 8 7 6 4 3 2 2 1 2 2 2 2 5 6
12 12 13 13 14 15 19 23 22 8 9 11 11 12 16 19 21 21 15 14 15 13 12 12 11 10 9 9 9 6 6 5 4 3 5 4 2 1 2 1 1 2 4
Wind_Direction
326 324 320 318 315 316 316 316 313 313 310 308 306 304 304 303 299 295 294 295 297 298 297 296 294 292 291 291 288 284 280 280 271 251 235 226 222 217 210 206 202 199 197
323 320 317 316 313 314 314 310 309 308 306 306 303 303 301 299 295 294 293 293 292 291 292 293 293 293 294 294 293 289 281 277 276 260 241 229 222 219 214 208 204 200 199
324 321 316 315 313 314 312 308 307 305 304 304 302 302 300 297 294 293 292 289 287 285 284 289 294 295 295 295 296 296 289 280 276 268 248 232 223 220 216 211 206 202 200
328 323 318 315 315 314 311 309 307 308 306 305 303 302 299 295 291 291 289 283 280 280 282 286 295 297 296 294 295 297 300 293 280 272 256 237 225 219 216 213 208 204 202
331 326 319 315 317 314 310 308 308 308 306 305 302 301 297 293 290 287 282 278 274 274 278 290 297 295 294 293 294 296 300 301 293 278 264 243 229 220 216 213 210 207 204
332 328 320 320 319 314 311 311 309 306 304 303 302 300 296 291 282 276 274 273 274 272 279 298 299 296 294 294 294 295 296 298 301 291 277 253 234 222 216 213 210 208 206
332 328 324 321 319 314 312 309 308 306 305 305 305 305 301 286 273 267 271 284 279 278 292 298 296 298 296 295 294 294 296 297 299 299 289 271 242 226 217 213 210 208 206
330 326 323 320 317 313 310 309 308 305 303 304 307 309 309 305 271 308 298 282 280 299 300 296 297 293 294 295 292 296 297 297 299 300 294 282 258 233 220 213 210 207 206
325 323 321 319 316 314 310 309 306 301 301 301 295 295 299 301 326 296 286 285 300 302 296 296 293 293 293 290 291 293 300 302 302 300 293 283 270 244 226 216 211 208 206
323 323 322 320 317 314 311 309 305 299 296 293 293 286 279 285 289 299 300 302 297 293 295 294 295 293 290 288 288 292 298 303 305 304 297 293 275 258 234 220 213 210 206
324 325 326 323 320 317 314 311 308 300 293 288 288 288 284 282 272 273 286 294 297 296 295 295 292 290 290 288 288 291 303 310 308 310 309 306 297 272 252 228 216 211 206
326 330 331 328 325 322 318 315 310 303 295 287 284 282 281 280 279 279 284 292 296 298 297 293 288 285 289 289 286 299 306 309 308 311 313 314 313 302 278 247 222 211 207
327 329 331 329 327 325 324 321 315 308 300 293 285 281 278 275 274 274 276 284 290 294 294 290 284 289 290 290 294 302 304 303 304 307 309 310 313 317 298 271 235 214 206
323 324 326 326 327 329 329 328 322 317 306 297 289 284 279 275 271 268 269 277 287 293 295 296 301 298 299 301 296 300 294 294 297 300 303 304 307 312 311 289 248 221 207
322 322 324 327 329 331 333 333 330 326 317 307 296 288 280 276 272 268 266 266 276 290 298 305 307 307 307 301 297 294 289 286 289 291 292 294 297 304 310 293 247 221 207
324 324 326 328 330 331 334 335 335 338 333 327 317 305 297 289 287 285 284 279 276 283 292 298 305 305 307 300 296 291 283 281 279 278 279 282 285 293 305 301 253 207 197
327 328 328 328 330 332 332 332 336 337 338 339 339 335 329 321 319 311 310 312 309 304 298 300 303 306 306 303 300 292 280 271 267 265 267 269 272 280 295 296 272 212 191
329 328 329 328 328 330 327 327 333 337 338 338 338 338 337 334 331 327 326 324 320 314 306 304 305 308 309 310 304 292 277 264 258 257 257 257 261 267 282 287 272 223 190
328 330 330 328 327 325 323 317 326 332 335 335 334 334 333 331 332 332 331 330 324 318 308 301 304 309 312 318 313 294 278 261 254 249 248 247 249 255 266 274 266 234 197
328 329 327 326 325 323 319 302 309 323 329 333 332 331 330 326 326 327 330 332 327 320 313 306 305 311 316 325 322 313 301 281 255 239 234 230 235 245 247 261 257 233 202
326 325 324 325 325 325 321 303 283 317 329 333 333 330 327 327 326 327 329 332 328 322 317 313 309 314 320 329 331 326 318 306 264 233 232 219 216 225 225 242 246 223 199
324 323 321 320 322 324 325 335 331 328 338 338 334 332 328 328 326 327 324 329 328 322 322 317 311 312 316 321 323 323 323 319 279 346 275 229 209 213 213 226 222 203 190
320 319 318 319 320 322 327 331 335 333 337 339 338 337 334 330 331 322 325 331 325 320 322 319 309 309 311 317 319 318 321 319 304 318 317 246 205 208 201 213 205 193 185
316 314 316 319 319 320 325 326 330 323 332 338 341 338 334 331 329 343 340 332 324 321 322 316 310 311 311 314 314 309 306 303 286 266 250 269 199 198 184 184 195 197 186
312 311 316 319 319 318 320 322 332 325 333 339 343 340 337 338 342 351 348 338 333 336 333 326 323 319 317 317 322 320 315 310 295 284 246 275 267 189 165 166 184 199 189
311 315 318 320 317 313 314 318 327 331 337 340 344 343 341 349 353 355 354 346 342 344 337 331 329 327 326 323 328 322 307 301 299 306 357 340 322 207 145 102 99 177 182
Height
1542 1537 1532 1526 1522 1516 1511 1506 1501 1496 1492 1488 1483 1479 1475 1472 1468 1466 1463 1460 1458 1457 1456 1456 1456 1457 1459 1461 1463 1466 1468 1471 1474 1478 1483 1487 1492 1497 1502 1508 1513 1518 1522
1538 1533 1528 1523 1518 1512 1506 1501 1496 1491 1486 1482 1477 1473 1468 1465 1462 1459 1456 1453 1451 1450 1449 1449 1449 1450 1451 1452 1455 1457 1460 1463 1466 1470 1474 1480 1485 1490 1496 1501 1507 1512 1517
1535 1529 1524 1519 1514 1508 1502 1496 1491 1486 1481 1476 1471 1466 1462 1458 1455 1453 1450 1447 1445 1443 1442 1441 1441 1441 1442 1444 1446 1449 1452 1455 1458 1461 1466 1471 1476 1482 1488 1494 1500 1506 1512
1531 1526 1520 1515 1509 1503 1498 1492 1487 1481 1476 1470 1465 1460 1456 1452 1448 1446 1443 1440 1439 1437 1436 1435 1433 1433 1433 1435 1437 1440 1443 1446 1449 1453 1457 1462 1468 1474 1480 1486 1492 1499 1505
1528 1522 1516 1511 1505 1499 1494 1489 1483 1477 1471 1465 1460 1454 1449 1445 1441 1438 1436 1434 1433 1432 1431 1429 1426 1425 1425 1427 1429 1431 1434 1437 1441 1445 1448 1453 1459 1465 1471 1478 1485 1492 1498
1524 1518 1512 1507 1501 1495 1490 1485 1479 1473 1467 1461 1455 1449 1443 1438 1435 1432 1430 1429 1427 1426 1425 1423 1420 1419 1419 1419 1420 1423 1426 1430 1433 1436 1440 1444 1449 1456 1463 1469 1477 1484 1491
1521 1515 1509 1503 1497 1492 1486 1480 1475 1469 1463 1458 1451 1444 1438 1433 1429 1427 1426 1424 1423 1422 1419 1417 1415 1413 1412 1412 1413 1415 1418 1422 1425 1428 1432 1436 1440 1447 1454 1461 1469 1476 1483
1517 1511 1506 1500 1494 1488 1482 1477 1471 1465 1459 1455 1450 1442 1435 1430 1424 1423 1421 1419 1418 1416 1414 1411 1409 1408 1406 1406 1406 1408 1410 1414 1417 1420 1424 1427 1432 1438 1445 1452 1460 1468 1475
1515 1509 1503 1497 1491 1485 1479 1473 1467 1461 1455 1451 1448 1444 1437 1429 1425 1420 1418 1416 1414 1411 1408 1406 1404 1402 1401 1400 1400 1401 1404 1406 1409 1413 1417 1420 1424 1429 1436 1443 1451 1459 1467
1512 1506 1501 1494 1488 1482 1475 1468 1462 1457 1451 1446 1443 1440 1437 1432 1428 1420 1415 1413 1410 1407 1404 1401 1398 1397 1395 1394 1394 1395 1397 1400 1402 1406 1409 1413 1416 1421 1427 1434 1442 1450 1458
1510 1504 1498 1492 1485 1478 1471 1464 1457 1451 1446 1442 1438 1435 1432 1429 1425 1421 1414 1409 1406 1402 1399 1396 1393 1392 1390 1389 1388 1389 1390 1392 1395 1398 1401 1405 1409 1413 1418 1425 1432 1441 1449
1507 1502 1495 1489 1483 1476 1468 1461 1453 1447 1441 1437 1433 1430 1427 1424 1421 1418 1413 1407 1402 1398 1395 1392 1389 1388 1386 1384 1383 1383 1383 1386 1388 1391 1394 1397 1401 1405 1410 1416 1423 1431 1440
1504 1499 1493 1487 1480 1473 1466 1458 1451 1444 1438 1433 1429 1426 1423 1420 1417 1414 1410 1405 1400 1394 1391 1388 1386 1384 1382 1380 1379 1377 1377 1380 1382 1385 1387 1390 1394 1398 1403 1408 1414 1422 1431
1502 1496 1491 1485 1479 1472 1465 1457 1450 1443 1436 1431 1426 1422 1418 1415 1412 1409 1406 1403 1398 1392 1388 1385 1383 1381 1379 1377 1375 1373 1372 1374 1376 1379 1381 1384 1388 1392 1397 1401 1406 1412 1421
1499 1494 1488 1483 1477 1470 1464 1457 1450 1442 1436 1429 1424 1419 1415 1411 1408 1405 1402 1399 1397 1391 1385 1381 1379 1377 1375 1373 1370 1369 1368 1368 1370 1373 1376 1379 1383 1386 1391 1395 1400 1404 1410
1497 1491 1486 1481 1475 1469 1462 1456 1449 1443 1436 1430 1424 1418 1414 1409 1406 1402 1399 1396 1393 1390 1383 1379 1376 1373 1370 1368 1365 1363 1363 1363 1364 1367 1371 1374 1378 1381 1386 1390 1394 1398 1403
1494 1489 1484 1478 1473 1467 1461 1455 1448 1442 1436 1430 1425 1419 1414 1409 1405 1401 1398 1394 1390 1387 1381 1376 1372 1368 1365 1363 1360 1358 1358 1358 1360 1362 1366 1369 1373 1377 1381 1386 1390 1395 1400
1492 1487 1482 1476 1471 1465 1459 1454 1447 1441 1435 1429 1424 1418 1414 1409 1405 1400 1396 1392 1388 1384 1380 1373 1368 1364 1361 1358 1354 1353 1353 1354 1355 1358 1361 1364 1369 1373 1377 1381 1386 1392 1397
1490 1485 1479 1474 1468 1463 1458 1452 1447 1441 1434 1428 1422 1417 1412 1408 1403 1399 1395 1390 1386 1381 1377 1371 1366 1361 1357 1354 1351 1350 1350 1350 1351 1353 1356 1360 1364 1369 1373 1378 1382 1388 1394
1488 1483 1477 1472 1466 1461 1455 1450 1445 1439 1433 1427 1421 1416 1411 1406 1402 1397 1393 1388 1383 1378 1374 1369 1364 1359 1355 1351 1349 1347 1347 1347 1348 1350 1352 1356 1360 1365 1370 1375 1379 1384 1390
1486 1480 1475 1469 1464 1458 1453 1447 1442 1437 1431 1425 1419 1414 1409 1405 1400 1396 1391 1386 1381 1376 1371 1366 1362 1358 1354 1350 1347 1344 1344 1343 1345 1346 1349 1353 1357 1361 1366 1370 1375 1380 1386
1484 1478 1472 1467 1461 1456 1451 1447 1441 1436 1430 1424 1418 1412 1407 1402 1397 1392 1388 1383 1378 1373 1368 1364 1359 1356 1352 1349 1345 1343 1342 1341 1343 1345 1346 1349 1353 1358 1362 1367 1371 1376 1383
1481 1476 1470 1464 1459 1454 1449 1444 1439 1434 1429 1423 1417 1411 1406 1400 1395 1389 1384 1379 1374 1370 1366 1361 1356 1353 1349 1347 1344 1342 1340 1339 1339 1341 1344 1346 1350 1355 1359 1363 1368 1373 1380
1479 1474 1468 1463 1458 1452 1447 1441 1437 1432 1427 1422 1416 1410 1405 1399 1393 1388 1382 1376 1371 1366 1361 1356 1353 1349 1346 1343 1342 1341 1339 1338 1338 1339 1342 1345 1348 1352 1356 1360 1365 1371 1377
1478 1472 1467 1462 1456 1451 1445 1439 1435 1429 1425 1420 1415 1409 1404 1398 1392 1386 1380 1374 1369 1363 1357 1352 1348 1344 1342 1340 1339 1338 1338 1338 1339 1340 1341 1343 1346 1351 1354 1358 1363 1368 1373
1476 1471 1466 1461 1455 1449 1443 1437 1432 1428 1423 1418 1413 1408 1403 1397 1391 1385 1379 1373 1367 1360 1354 1349 1345 1341 1338 1336 1336 1335 1336 1337 1337 1339 1340 1342 1345 1349 1353 1356 1361 1366 1371